Regional Weather Roundup
Issued by NWS Midland/Odessa, TX

Home | Current Version | Previous Version | Text Only | Print | Product List | Glossary On
Versions: 1 2 3 4 5 6 7 8 9 10 11 12 13 14 15 16 17 18 19 20 21 22 23 24 25 26 27 28 29 30 31 32 33 34 35 36 37 38 39 40 41 42 43 44 45 46 47 48 49 50
000
ASUS44 KMAF 200110
RWRMAF
MIDLAND AREA WEATHER ROUNDUP
NATIONAL WEATHER SERVICE MIDLAND TX
800 PM CDT SAT AUG 19 2017

...IN SOUTHWEST TEXAS AND SOUTHEAST NEW MEXICO...

CITY           SKY/WX    TMP DP  RH WIND       PRES   REMARKS
ALPINE         CLOUDY    68  61  77 E12       30.17R THUNDER
ANDREWS          N/A     87  58  37 S7        29.99S
ARTESIA        CLOUDY    84  57  39 S14       30.01S
BIG SPRING     CLEAR     90  61  37 S5        29.99R
CARLSBAD       CLOUDY    76  71  85 S6        29.97F
DRYDEN           N/A     89  65  44 SE5       29.93R
FORT STOCKTON  CLEAR     88  60  38 S14G22    29.98R
GUAD PASS      CLOUDY    73  58  59 E7        30.16F
HOBBS          PTCLDY    84  59  42 SE9       30.02S
MARFA          CLEAR     77  59  53 SE15      30.13R
MIDLAND AIRPK  CLEAR     92  56  30 S9        29.98R
MIDLAND INTL   CLEAR     92  55  28 S14       29.97S
ODESSA         CLEAR     91  53  27 S14       29.98S
PECOS          CLOUDY    88  60  38 N14       29.95R
PRESIDIO       FAIR      87  59  38 E7        29.98S
SEMINOLE       CLEAR     85  59  41 CALM      30.02R
SNYDER         CLEAR     91  63  39 SE12      29.97R
WINK           MOCLDY    83  62  49 W13       29.95R
$$
...OTHER STATIONS IN TEXAS...

CITY           SKY/WX    TMP DP  RH WIND       PRES   REMARKS
ABILENE        MOCLDY    80  70  71 CALM      29.97R
AMARILLO       PTCLDY    82  62  50 S8        30.03R
AUSTIN         MOCLDY    96  66  37 S9        29.89R
BROWNSVILLE    PTCLDY    85  76  74 SE13      29.92R
CORPUS CHRISTI PTCLDY    86  74  67 SE14      29.90R
DALLAS FTW     MOCLDY    92  70  48 SE8       29.88S
DEL RIO        CLEAR     97  57  26 E12       29.86R
EL PASO        MOCLDY    83  60  45 SE9       30.02R
HOUSTON INT    PTCLDY    89  75  63 SE14      29.92R
LUBBOCK        PTCLDY    83  62  49 SE10      30.01R
SAN ANGELO     CLEAR     94  59  31 SE9       29.92S
SAN ANTONIO    PTCLDY    91  63  39 SE10      29.92R
WACO           CLEAR     93  65  39 S8        29.89S
WICHITA FALLS  NOT AVBL
$$
...OTHER LOCATIONS IN NEW MEXICO...

CITY           SKY/WX    TMP DP  RH WIND       PRES   REMARKS
ALAMOGORDO     MOCLDY    84  50  30 NE14      30.04R
ALBUQUERQUE    MOCLDY    79  45  29 E23G31    30.08S
CANNON AFB     PTCLDY    80  64  57 S8        30.07S
CLOVIS         PTCLDY    78  64  61 S8        30.07R
HOLLOMAN AFB   PTCLDY    86  53  31 NE18      30.04R
ROSWELL        PTCLDY    86  58  38 S15       30.01R
RUIDOSO        CLOUDY    61  50  67 W16G24    30.27F
SANTA FE       CLOUDY    73  47  39 SE17G25   30.20R
TRUTH OR CONSE CLOUDY    86  51  29 S9        30.05S
TUCUMCARI      MOCLDY    87  56  34 S8        30.01R
$$




USA.gov is the U.S. government's official web portal to all federal, state and local government web resources and services.